Regional Weather Roundup
Issued by NWS Austin/San Antonio, TX

Home | Current Version | Previous Version | Text Only | Print | Product List | Glossary On
Versions: 1 2 3 4 5 6 7 8 9 10 11 12 13 14 15 16 17 18 19 20 21 22 23 24 25 26 27 28 29 30 31 32 33 34 35 36 37 38 39 40 41 42 43 44 45 46 47 48 49 50
000
ASUS44 KEWX 271612
RWREWX
SOUTH TEXAS REGIONAL WEATHER ROUNDUP
NATIONAL WEATHER SERVICE AUSTIN/SAN ANTONIO TX
1100 AM CDT THU APR 27 2017

NOTE: "FAIR" INDICATED FEW OR NO CLOUDS BELOW 12,000 FEET WITH NO
SIGNIFICANT WEATHER AND/OR OBSTRUCTIONS TO VISIBILITY.

* - THESE STATIONS ARE NOT NWS OR FAA STATIONS...AND ARE NOT SUBJECT
    TO NWS AND FAA QUALITY CONTROL.

TXZ171-172-183>190-271700-
TEXAS HILL COUNTRY AND EDWARDS PLATEAU

CITY           SKY/WX    TMP DP  RH WIND       PRES   REMARKS
JUNCTION       CLOUDY    71  40  32 S15G23    29.81S
*LLANO         SUNNY     70  46  43 S9        29.85S
BURNET         SUNNY     67  44  43 SE9       29.83F
*HORSESHOE BAY SUNNY     69  46  43 SE9G17    29.82F
*KERRVILLE     SUNNY     66  48  51 S10       29.83F
*FREDERICKSBRG SUNNY     68  42  39 S12       29.83S
*ROCKSPRINGS   CLOUDY    64  45  48 S17       29.85F
*BOERNE STAGE  SUNNY     66  43  42 SE9       29.85S
*CASTROVILLE   SUNNY     71  44  38 SE8       29.85F
HONDO          SUNNY     70  48  45 MISG      29.84F
*UVALDE        SUNNY     68  47  46 SE9       29.85F
DEL RIO        SUNNY     73  42  32 SE18G25   29.81S
LAUGHLIN AFB   PTSUNNY   72  47  40 S13G22    29.82S
CARRIZO SPRGS  SUNNY     73  45  35 SE10G16   29.81F
*EAGLE PASS    NOT AVBL
$$

TXZ173-191>194-202-209-217>225-228-271700-
CENTRAL AND SOUTH CENTRAL TEXAS

CITY           SKY/WX    TMP DP  RH WIND       PRES   REMARKS
GEORGETOWN     SUNNY     66  43  42 E8        29.83F
AUSTIN/BERGSTM MOSUNNY   70  46  42 SE12G17   29.81F
AUSTIN/MABRY   SUNNY     68  44  42 SE10      29.82F
*AUSTIN/EXEC   FAIR      68  46  45 E7        29.82F
*LAGO VISTA    SUNNY     68  44  42 SE6       29.83F
SAN MARCOS     SUNNY     70  46  43 SE7       29.84F
NEW BRAUNFELS  SUNNY     72  46  39 SE9G18    29.82F
RANDOLPH AFB   SUNNY     69  46  43 SE8       29.83F
PT SAN ANTONIO SUNNY     70  48  44 SE7       29.82F
SAN ANTONIO    MOSUNNY   69  47  45 SE12G17   29.84F
STINSON FIELD  SUNNY     71  47  42 SE8       29.82F
*LA GRANGE     SUNNY     69  50  49 SE8       29.81F
*GIDDINGS      SUNNY     69  46  43 E10       29.84F
*GONZALES      SUNNY     71  48  44 MISG      29.82F
$$

TXZ163>164-176>182-195>201-210>213-226-227-235-271700-
SOUTHEAST TEXAS

CITY           SKY/WX    TMP DP  RH WIND       PRES   REMARKS
COLLEGE STN    SUNNY     69  45  41 SE8       29.84R
*BRYAN         SUNNY     67  46  45 E8        29.85S
*CALDWELL      NOT AVBL
*CROCKETT      SUNNY     63  48  59 E6        29.87F
*BRENHAM       MOSUNNY   69  47  46 SE10      29.84F
HUNTSVILLE     SUNNY     67  44  43 NE6       29.83F
CONROE         SUNNY     66  47  50 VRB6      29.84F
HOUSTON BUSH   MOSUNNY   68  48  48 E9        29.85R
HOUSTON HOBBY  MOSUNNY   68  50  52 E7        29.84S
*HOUSTON SW AP SUNNY     69  49  49 SE8       29.85S
PEARLAND       SUNNY     70  49  47 E12       29.86S
HOUSTON HOOKS  SUNNY     68  48  48 E7        29.84S
ELLINGTON FLD  SUNNY     68  48  49 E9        29.86S
SUGAR LAND     SUNNY     69  49  48 SE12      29.84S
*HOUSTON EXEC  SUNNY     68  46  45 SE7       29.86R
*CLEVELAND MUN SUNNY     65  50  58 SE3       29.85F
*WHARTON       SUNNY     69  46  43 E9        29.84F
*COLUMBUS      FAIR      67  46  45 E8        29.84F
*EAGLE LAKE    SUNNY     69  50  50 E10       29.84F
$$

TXZ214>216-236>238-271700-
THE UPPER TEXAS COAST

CITY           SKY/WX    TMP DP  RH WIND       PRES   REMARKS
*ORANGE        SUNNY     67  51  58 E6        29.86F
PORT ARTHUR    SUNNY     69  49  48 E6        29.84F
GALVESTON      SUNNY     71  58  63 E12       29.84F
ANGLETON       SUNNY     73  53  49 E10       29.84S
*BAY CITY      SUNNY     70  52  52 E9        29.83S
PALACIOS       SUNNY     72  53  51 E13       29.82S
$$

TXZ229>234-239>247-271700-
TEXAS COASTAL BEND AND RIO GRANDE PLAINS

CITY           SKY/WX    TMP DP  RH WIND       PRES   REMARKS
VICTORIA       SUNNY     71  51  49 E10       29.83S
*BEEVILLE      SUNNY     75  50  41 SE9G20    29.82S
ROCKPORT       SUNNY     76  60  57 E15       29.81F
*PORT ARANSAS  SUNNY     75  62  63 SE13      29.81F
*PORT LAVACA   SUNNY     71  54  54 E12       29.83S
*INGLESIDE     SUNNY     78  58  50 E13G22    29.81S
CORPUS CHRISTI MOSUNNY   78  58  49 E14       29.81F
CORPUS NAS     MOSUNNY   79  61  53 E18       29.80F
*ROBSTOWN      SUNNY     79  61  52 E14       29.81F
ALICE          SUNNY     79  61  53 SE12      29.80F
KINGSVILLE NAS PTSUNNY   80  67  64 SE13      29.81F
COTULLA        SUNNY     76  41  28 SE13G18   29.83F
*FAITH RANCH   SUNNY     77  39  25 SE10G17   29.81F
LAREDO         SUNNY     78  53  41 SE15      29.80F
$$

TXZ248>255-271700-
DEEP SOUTH TEXAS

CITY           SKY/WX    TMP DP  RH WIND       PRES   REMARKS
BROWNSVILLE    CLOUDY    82  72  71 E9        29.79S
PORT ISABEL    CLOUDY    80  71  74 E14       29.80S
*SOUTH PADRE   NOT AVBL
HARLINGEN      CLOUDY    81  71  71 E12       29.78F
*HEBBRONVILLE  SUNNY     73  58  59 S10       29.83F
MCALLEN        CLOUDY    83  68  60 E9        29.80F
*WESLACO       CLOUDY    81  70  67 SE9G16    29.79S
FALFURRIAS     PTSUNNY   78  64  62 E7        29.81F
EDINBURG       CLOUDY    82  66  60 E10       29.80F
*ZAPATA        SUNNY     78  60  53 E10G17    29.80F
$$

TXZ213>215-236>238-242>244-246-247-251-254-255-271700-
CMAN STATIONS

STATION/POSITION TIME  TEMP    WIND        PRES    WAVE
                       AIR SEA DIR/SP/G            HT/PER
                 (UTC) (F)     (DEG/KT/KT) (MB)    (FT/S)
SABINE PASS      1548   64 75   30/  8/ 12 1011.9
SEA RIM ST PARK  1600   66      40/  9/ 10 1011.0
NORTH JETTY/GLS  1548           60/ 14/ 17   N/A
EAGLE POINT      1548          100/  9/ 12   N/A
MORGANS POINT    1548   64 75   70/  9/ 12 1010.5
MISSION/ARANSAS  1500   71                 1010.0
PORT O`CONNOR    1548   70      90/ 13/ 18 1009.4
PORT ARANSAS     1600   71 77  100/ 14/ 17 1009.4
MALAQUITE BEACH  1548   72 76   90/ 13/ 16 1010.2
BAFFIN BAY       1548   73 72   50/ 12/ 16 1009.5
PORT ISABEL      1548   77 80   10/  3/  5 1008.9
$$




USA.gov is the U.S. government's official web portal to all federal, state and local government web resources and services.